Flag for U.S.A. Weather past 2 weeks in Port Angeles, Washington, U.S.A.

Now
48 °F

Fog.


Feels Like: N/A
Forecast: 44 / 51 °F
Wind: N/A

Location: William R. Fairchild International Airport

Current Time: Jan 26, 2015 at 2:51:24 AM

Latest Report: Jan 26, 2015 at 1:53 AM


Visibility: 0 mi

Pressure: 29.94 "Hg

Humidity: 96%

Dew point: 47 °F

Location of Port AngelesLocation

Historic Weather in Port Angeles — Graph

°F

Port Angeles temperature yesterday

Maximum temperature yesterday: 54 °F (at 9:53 AM)
Minimum temperature yesterday: 49 °F (at 7:53 AM)
Average temperature yesterday: 51 °F

Past Weeks' High & Low Weather Summary

 TemperatureHumidityPressure
High55 °F (Jan 24, 10:53 AM)97% (Jan 11, 4:53 AM)30.48 "Hg (Jan 11, 4:53 AM)
Low35 °F (Jan 15, 2:53 AM)51% (Jan 16, 11:53 AM)29.47 "Hg (Jan 18, 12:53 AM)
Average45 °F87%30.19 "Hg
* Reported Jan 11 2:02 AM — Jan 26 1:53 AM, Port Angeles, Weather by CustomWeather, © 2014

Note: Actual official high and low records may vary slightly from our data, if they occured in-between our weather recording intervals... More about our weather records

Advertising

Port Angeles weather history for previous 24 hours

 ConditionsComfort  
Time TempWeatherWind HumidityBarometerVisibility
1:53 AM
Jan 26
48 °FFog.N/A96%29.94 "Hg1 mi
1:04 AM50 °FFog.N/A93%29.95 "Hg1 mi
12:53 AM50 °FFog.N/A93%29.96 "Hg2 mi
11:53 PM
Jan 25
50 °FFog.N/A96%29.98 "Hg5 mi
10:53 PM51 °FLow clouds.N/A89%30.00 "Hg10 mi
9:53 PM51 °FLow clouds.N/A89%30.02 "Hg10 mi
8:53 PM51 °FLow clouds.N/A89%30.03 "Hg10 mi
7:53 PM50 °FLow clouds.N/A93%30.05 "Hg10 mi
6:53 PM50 °FLow clouds.6 mph89%30.06 "Hg10 mi
5:53 PM51 °FLow clouds.No wind89%30.08 "Hg10 mi
4:53 PM52 °FLow clouds.No wind86%30.07 "Hg10 mi
3:53 PM52 °FOvercast.No wind86%30.09 "Hg10 mi
2:53 PM52 °FOvercast.3 mph89%30.10 "Hg10 mi
1:53 PM53 °FOvercast.5 mph83%30.13 "Hg10 mi
12:53 PM53 °FOvercast.No wind86%30.14 "Hg10 mi
11:53 AM51 °FOvercast.No wind92%30.15 "Hg10 mi
10:53 AM52 °FOvercast.No wind89%30.15 "Hg10 mi
9:53 AM54 °FOvercast.No wind83%30.14 "Hg10 mi
8:53 AM50 °FOvercast.No wind89%30.14 "Hg10 mi
7:53 AM49 °FOvercast.5 mph90%30.16 "Hg10 mi
6:53 AM50 °FOvercast.5 mph89%30.18 "Hg10 mi
5:53 AM50 °FOvercast.6 mph89%30.18 "Hg10 mi
4:53 AM51 °FOvercast.3 mph89%30.18 "Hg10 mi
3:53 AM51 °FOvercast.6 mph92%30.20 "Hg10 mi
2:53 AM52 °FOvercast.No wind89%30.20 "Hg10 mi
Weather by CustomWeather, © 2014

See weather overviewHow to use our weather pages